Location: DARK SKY Beskydy - Park tmavé oblohy, www.darkskybeskydy.cz
(49.4926°N, 18.5016°E)
Time: 02:47:06
(UTC+02:00)

A-11 Canister half - Pass Details

Date: 28 February 2024
Orbit: 1513 x 1686 km, 47.2° (Epoch: 24 April)

Event Time Altitude Azimuth Distance (km) Brightness Sun altitude
Rises 21:54:42 0° 168° (SSE) 4,914 - -41.0°
Reaches altitude 10° 22:01:00 10° 139° (SE) 3,943 - -41.7°
Maximum altitude 22:03:58 12° 121° (ESE) 3,814 - -42.0°
Drops below altitude 10° 22:06:57 10° 104° (ESE) 3,947 - -42.3°
Sets 22:13:12 0° 76° (ENE) 4,924 - -42.9°
